Flag for Guatemala Weather past 2 weeks in Escuintla, Guatemala

Now
77 °F

Thunderstorms. Scattered clouds.


Feels Like: 79 °F
Forecast: N/A
Wind: 16 mph from Northeast

Location: Guatemala Aeropuertola Aurora

Current Time: Jul 3, 2015 at 5:04:14 PM

Latest Report: Jul 3, 2015 at 4:00 PM


Visibility: N/A

Pressure: 30.15 "Hg

Humidity: 57%

Dew point: 61 °F

Location of EscuintlaLocation

Historic Weather in Escuintla — Graph

°F

Escuintla temperature yesterday

Maximum temperature yesterday: 81 °F (at 4:00 PM)
Minimum temperature yesterday: 63 °F (at 1:00 AM)
Average temperature yesterday: 69 °F

Past Weeks' High & Low Weather Summary

 TemperatureHumidityPressure
High81 °F (Jun 27, 2:00 PM)100% (Jun 28, 6:00 AM)30.36 "Hg (Jun 28, 6:00 AM)
Low61 °F (Jun 23, 3:00 AM)37% (Jun 27, 2:00 PM)30.15 "Hg (Jun 18, 4:00 PM)
Average69 °F75%30.29 "Hg
* Reported Jun 18 4:00 PM — Jul 3 4:00 PM, Escuintla, Weather by CustomWeather, © 2015

Note: Actual official high and low records may vary slightly from our data, if they occured in-between our weather recording intervals... More about our weather records

Advertising

Escuintla weather history for previous 24 hours

 ConditionsComfort  
Time TempWeatherWind HumidityBarometerVisibility
4:00 PM
Fri, Jul 3
77 °FThunderstorms. Scattered clouds.16 mph57%30.15 "HgN/A
3:15 PMN/AThunderstorms.18 mphN/AN/A5 mi
3:00 PM81 °FScattered clouds.18 mph51%30.18 "HgN/A
2:00 PM81 °FScattered clouds.18 mph48%30.18 "HgN/A
1:00 PM79 °FPassing clouds.18 mph54%30.21 "HgN/A
12:00 PM77 °FPassing clouds.18 mph57%30.24 "HgN/A
11:00 AM77 °FScattered clouds.18 mph57%30.24 "HgN/A
10:00 AM75 °FScattered clouds.14 mph61%30.24 "HgN/A
9:00 AM72 °FScattered clouds.18 mph73%30.24 "HgN/A
8:00 AM68 °FPartly sunny.21 mph88%30.24 "HgN/A
7:00 AM66 °FScattered clouds.14 mph88%30.24 "HgN/A
6:00 AM64 °FScattered clouds.9 mph94%30.24 "HgN/A
5:00 AM64 °FPassing clouds.14 mph94%30.24 "HgN/A
4:00 AM66 °FPassing clouds.14 mph88%30.24 "HgN/A
3:00 AM66 °FPassing clouds.14 mph88%30.21 "HgN/A
2:00 AM66 °FPassing clouds.16 mph88%30.24 "HgN/A
1:00 AM66 °FPassing clouds.12 mph88%30.24 "HgN/A
12:00 AM66 °FPartly cloudy.16 mph83%30.24 "HgN/A
11:00 PM
Thu, Jul 2
66 °FPartly cloudy.21 mph88%30.27 "HgN/A
10:00 PM68 °FPartly cloudy.18 mph78%30.27 "HgN/A
9:00 PM68 °FPassing clouds.16 mph78%30.27 "HgN/A
8:00 PM70 °FPassing clouds.16 mph73%30.24 "HgN/A
7:00 PM72 °FPassing clouds.16 mph65%30.21 "HgN/A
6:00 PM75 °FPartly sunny.12 mph54%30.18 "HgN/A
5:00 PM77 °FBroken clouds.12 mph54%30.18 "HgN/A
Weather by CustomWeather, © 2015

See weather overviewHow to use our weather pages